Tracking 20241 objects as of 25-Jan-2020
HD Live streaming from Space Station
objects crossing your sky now

FENGYUN 1C DEB

Track FENGYUN 1C DEB now!
10-day predictions


NORAD ID: 31809
Int'l Code: 1999-025CGX
Perigee: 680.3 km
Apogee: 715.9 km
Inclination: 98.8 °
Period: 98.6 minutes
Semi major axis: 7069 km
RCS: 0.0028 m2 (small)
Launch date: May 10, 1999
Source: People's Republic of China (PRC)
Launch site: Taiyaun Space Center, China (TSC)

Note: This is SATELLITE DEBRIS
aabbcc
Your satellite tracking list
Your tracking list is empty




NASA's NSSDC Master Catalog

Two Line Element Set (TLE):
1 31809U 99025CGX 20024.36189552 +.00002186 +00000-0 +45794-3 0  9992
2 31809 098.8409 227.3582 0025203 292.0889 067.7633 14.60677163347377
Source of the keplerian elements: AFSPC